| time (UTC) | temp F | wind direction | speed MPH | gust MPH | rain 1hr in | rain 24hr in | rain mn in | humidity % | barometer mb |
| 20260504223149 | 59 | 252 | 10.0 | 20.0 | 0.00 | 0.00 | 0.00 | 72 | 1007.2 |
| 20260504222650 | 59 | 251 | 8.0 | 16.0 | 0.00 | 0.00 | 0.00 | 71 | 1007.3 |
| 20260504222148 | 60 | 248 | 10.0 | 19.0 | 0.00 | 0.00 | 0.00 | 70 | 1007.3 |
| 20260504221650 | 60 | 257 | 10.0 | 19.0 | 0.00 | 0.00 | 0.00 | 70 | 1007.5 |
| 20260504221150 | 60 | 258 | 8.0 | 17.0 | 0.00 | 0.00 | 0.00 | 70 | 1007.5 |
| 20260504220649 | 60 | 220 | 7.0 | 14.0 | 0.00 | 0.00 | 0.00 | 70 | 1007.5 |
| 20260504220146 | 60 | 231 | 7.0 | 17.0 | 0.00 | 0.00 | 0.00 | 70 | 1007.5 |
| 20260504215647 | 60 | 251 | 8.0 | 17.0 | 0.00 | 0.00 | 0.00 | 70 | 1007.5 |
| 20260504215146 | 60 | 268 | 9.0 | 17.0 | 0.00 | 0.00 | 0.00 | 69 | 1007.5 |
| 20260504214647 | 60 | 239 | 9.0 | 17.0 | 0.00 | 0.00 | 0.00 | 69 | 1007.6 |
| 20260504214147 | 61 | 245 | 11.0 | 20.0 | 0.00 | 0.00 | 0.00 | 68 | 1007.6 |
| 20260504213146 | 60 | 257 | 12.0 | 18.0 | 0.00 | 0.00 | 0.00 | 70 | 1007.7 |
| 20260504212644 | 60 | 245 | 12.0 | 19.0 | 0.00 | 0.00 | 0.00 | 69 | 1007.7 |
| 20260504212146 | 60 | 260 | 13.0 | 21.0 | 0.00 | 0.00 | 0.00 | 69 | 1007.7 |
| 20260504211644 | 60 | 248 | 13.0 | 21.0 | 0.00 | 0.00 | 0.00 | 69 | 1007.7 |
| 20260504211145 | 60 | 251 | 11.0 | 21.0 | 0.00 | 0.00 | 0.00 | 71 | 1007.7 |
| 20260504210644 | 60 | 249 | 11.0 | 17.0 | 0.00 | 0.00 | 0.00 | 71 | 1007.6 |
| 20260504210144 | 60 | 249 | 13.0 | 19.0 | 0.00 | 0.00 | 0.00 | 70 | 1007.6 |
| 20260504205645 | 60 | 247 | 13.0 | 19.0 | 0.00 | 0.00 | 0.00 | 70 | 1007.6 |
| 20260504205144 | 60 | 261 | 13.0 | 19.0 | 0.00 | 0.00 | 0.00 | 71 | 1007.6 |
| 20260504204646 | 60 | 240 | 12.0 | 19.0 | 0.00 | 0.00 | 0.00 | 69 | 1007.6 |
| 20260504204145 | 60 | 265 | 11.0 | 18.0 | 0.00 | 0.00 | 0.00 | 69 | 1007.6 |
| 20260504203645 | 60 | 249 | 10.0 | 18.0 | 0.00 | 0.00 | 0.00 | 70 | 1007.7 |
| 20260504203144 | 59 | 264 | 10.0 | 16.0 | 0.00 | 0.00 | 0.00 | 71 | 1007.7 |
| 20260504202644 | 59 | 260 | 11.0 | 16.0 | 0.00 | 0.00 | 0.00 | 71 | 1007.7 |
| 20260504202144 | 60 | 253 | 12.0 | 20.0 | 0.00 | 0.00 | 0.00 | 69 | 1007.7 |
| 20260504201644 | 60 | 258 | 11.0 | 20.0 | 0.00 | 0.00 | 0.00 | 68 | 1007.7 |
| 20260504201144 | 60 | 251 | 11.0 | 18.0 | 0.00 | 0.00 | 0.00 | 68 | 1007.7 |
| 20260504200642 | 62 | 262 | 12.0 | 20.0 | 0.00 | 0.00 | 0.00 | 64 | 1007.8 |
| 20260504195643 | 63 | 254 | 10.0 | 23.0 | 0.00 | 0.00 | 0.00 | 62 | 1007.9 |
| 20260504195142 | 63 | 257 | 5.0 | 18.0 | 0.00 | 0.00 | 0.00 | 61 | 1007.9 |
| 20260504194642 | 63 | 274 | 2.0 | 11.0 | 0.00 | 0.00 | 0.00 | 60 | 1007.9 |
| 20260504194144 | 62 | 257 | 0.0 | 4.0 | 0.00 | 0.00 | 0.00 | 61 | 1007.9 |
| 20260504193642 | 62 | 224 | 0.0 | 5.0 | 0.00 | 0.00 | 0.00 | 65 | 1007.9 |
| 20260504193143 | 62 | 270 | 0.0 | 5.0 | 0.00 | 0.00 | 0.00 | 65 | 1007.9 |
| 20260504192640 | 62 | 251 | 0.0 | 5.0 | 0.00 | 0.00 | 0.00 | 64 | 1008.0 |
| 20260504192140 | 62 | 249 | 0.0 | 5.0 | 0.00 | 0.00 | 0.00 | 64 | 1008.1 |
| 20260504191640 | 62 | 216 | 0.0 | 3.0 | 0.00 | 0.00 | 0.00 | 65 | 1008.2 |
| 20260504190641 | 61 | 260 | 1.0 | 6.0 | 0.00 | 0.00 | 0.00 | 65 | 1008.2 |
| 20260504190140 | 62 | 257 | 1.0 | 7.0 | 0.00 | 0.00 | 0.00 | 65 | 1008.3 |
| 20260504185640 | 62 | 248 | 1.0 | 7.0 | 0.00 | 0.00 | 0.00 | 64 | 1008.3 |
| 20260504185141 | 62 | 311 | 1.0 | 8.0 | 0.00 | 0.00 | 0.00 | 62 | 1008.3 |
| 20260504184642 | 62 | 264 | 1.0 | 8.0 | 0.00 | 0.00 | 0.00 | 61 | 1008.3 |
| 20260504184140 | 62 | 253 | 0.0 | 9.0 | 0.00 | 0.00 | 0.00 | 63 | 1008.4 |
| 20260504183638 | 62 | 253 | 1.0 | 9.0 | 0.00 | 0.00 | 0.00 | 63 | 1008.6 |
| 20260504183139 | 62 | 238 | 1.0 | 6.0 | 0.00 | 0.00 | 0.00 | 62 | 1008.6 |
| 20260504182638 | 62 | 238 | 0.0 | 5.0 | 0.00 | 0.00 | 0.00 | 62 | 1008.6 |
| 20260504182138 | 62 | 261 | 0.0 | 5.0 | 0.00 | 0.00 | 0.00 | 62 | 1008.7 |
| 20260504181639 | 62 | 268 | 1.0 | 7.0 | 0.00 | 0.00 | 0.00 | 62 | 1008.8 |
| 20260504181138 | 62 | 256 | 1.0 | 7.0 | 0.00 | 0.00 | 0.00 | 62 | 1008.8 |
| 20260504180639 | 62 | 243 | 1.0 | 6.0 | 0.00 | 0.00 | 0.00 | 61 | 1008.9 |
| 20260504180138 | 62 | 266 | 1.0 | 7.0 | 0.00 | 0.00 | 0.00 | 61 | 1008.9 |
| 20260504175640 | 61 | 227 | 1.0 | 7.0 | 0.00 | 0.00 | 0.00 | 61 | 1009.0 |
| 20260504175138 | 61 | 258 | 1.0 | 5.0 | 0.00 | 0.00 | 0.00 | 63 | 1009.0 |
| 20260504174636 | 62 | 260 | 1.0 | 4.0 | 0.00 | 0.00 | 0.00 | 61 | 1009.1 |
| 20260504174137 | 62 | 247 | 1.0 | 8.0 | 0.00 | 0.00 | 0.00 | 60 | 1009.2 |
| 20260504173636 | 62 | 248 | 1.0 | 8.0 | 0.00 | 0.00 | 0.00 | 60 | 1009.2 |
| 20260504173136 | 61 | 237 | 1.0 | 4.0 | 0.00 | 0.00 | 0.00 | 61 | 1009.2 |
| 20260504172636 | 61 | 263 | 1.0 | 4.0 | 0.00 | 0.00 | 0.00 | 62 | 1009.3 |
| 20260504172136 | 61 | 258 | 1.0 | 7.0 | 0.00 | 0.00 | 0.00 | 63 | 1009.4 |
| 20260504171635 | 61 | 287 | 1.0 | 8.0 | 0.00 | 0.00 | 0.00 | 61 | 1009.3 |
| 20260504171136 | 60 | 239 | 1.0 | 8.0 | 0.00 | 0.00 | 0.00 | 62 | 1009.5 |
| 20260504170636 | 61 | 264 | 1.0 | 6.0 | 0.00 | 0.00 | 0.00 | 60 | 1009.4 |
| 20260504170135 | 61 | 247 | 1.0 | 6.0 | 0.00 | 0.00 | 0.00 | 60 | 1009.6 |
| 20260504160133 | 60 | 260 | 1.0 | 6.0 | 0.00 | 0.00 | 0.00 | 61 | 1010.3 |
| 20260504151131 | 59 | 333 | 1.0 | 8.0 | 0.00 | 0.00 | 0.00 | 63 | 1011.1 |
| 20260504150630 | 59 | 249 | 0.0 | 3.0 | 0.00 | 0.00 | 0.00 | 63 | 1011.1 |
| 20260504150131 | 59 | 239 | 0.0 | 4.0 | 0.00 | 0.00 | 0.00 | 64 | 1011.2 |
| 20260504141128 | 58 | 270 | 1.0 | 7.0 | 0.00 | 0.00 | 0.00 | 65 | 1011.5 |
| 20260504140627 | 58 | 275 | 1.0 | 9.0 | 0.00 | 0.00 | 0.00 | 65 | 1011.5 |
| 20260504140127 | 57 | 268 | 1.0 | 9.0 | 0.00 | 0.00 | 0.00 | 64 | 1011.5 |
| 20260504130625 | 56 | 250 | 0.0 | 4.0 | 0.00 | 0.00 | 0.00 | 65 | 1012.0 |
| 20260504130125 | 56 | 281 | 1.0 | 4.0 | 0.00 | 0.00 | 0.00 | 66 | 1012.1 |
| 20260504120124 | 55 | 288 | 1.0 | 7.0 | 0.00 | 0.00 | 0.00 | 59 | 1012.2 |
| 20260504110622 | 53 | 296 | 1.0 | 6.0 | 0.00 | 0.00 | 0.00 | 65 | 1012.1 |
| 20260504110121 | 53 | 295 | 1.0 | 6.0 | 0.00 | 0.00 | 0.00 | 65 | 1012.1 |
| 20260504100118 | 51 | 320 | 0.0 | 2.0 | 0.00 | 0.00 | 0.00 | 61 | 1011.7 |
| 20260504081613 | 52 | 15 | 0.0 | 2.0 | 0.00 | 0.00 | 0.00 | 55 | 1011.2 |
| 20260504081114 | 52 | 9 | 0.0 | 1.0 | 0.00 | 0.00 | 0.00 | 55 | 1011.2 |
| 20260504080613 | 51 | 359 | 0.0 | 1.0 | 0.00 | 0.00 | 0.00 | 55 | 1011.2 |
| 20260504080114 | 51 | 8 | 0.0 | 1.0 | 0.00 | 0.00 | 0.00 | 55 | 1011.2 |
| 20260504070111 | 51 | 16 | 1.0 | 2.0 | 0.00 | 0.00 | 0.00 | 57 | 1010.8 |
| 20260504050606 | 46 | 32 | 0.0 | 1.0 | 0.00 | 0.00 | 0.00 | 73 | 1010.6 |
| 20260504050107 | 46 | 26 | 0.0 | 1.0 | 0.00 | 0.00 | 0.00 | 73 | 1010.6 |
| 20260504045605 | 46 | 25 | 0.0 | 1.0 | 0.00 | 0.00 | 0.00 | 72 | 1010.7 |
| 20260504044102 | 47 | 25 | 0.0 | 1.0 | 0.00 | 0.00 | 0.00 | 71 | 1010.6 |
| 20260504043601 | 47 | 25 | 0.0 | 1.0 | 0.00 | 0.00 | 0.00 | 71 | 1010.5 |
| 20260504042603 | 47 | 24 | 0.0 | 0.0 | 0.00 | 0.00 | 0.00 | 72 | 1010.5 |
| 20260504042101 | 47 | 25 | 0.0 | 0.0 | 0.00 | 0.00 | 0.00 | 71 | 1010.5 |
| 20260504041602 | 48 | 25 | 0.0 | 0.0 | 0.00 | 0.00 | 0.00 | 70 | 1010.4 |
| 20260504041101 | 48 | 25 | 0.0 | 0.0 | 0.00 | 0.00 | 0.00 | 71 | 1010.5 |
| 20260504040602 | 48 | 25 | 0.0 | 1.0 | 0.00 | 0.00 | 0.00 | 71 | 1010.5 |
| 20260504033600 | 47 | 32 | 0.0 | 1.0 | 0.00 | 0.00 | 0.00 | 66 | 1010.4 |
| 20260504032557 | 48 | 32 | 0.0 | 1.0 | 0.00 | 0.00 | 0.00 | 67 | 1010.3 |
| 20260504032057 | 48 | 33 | 0.0 | 1.0 | 0.00 | 0.00 | 0.00 | 67 | 1010.3 |
| 20260504031557 | 48 | 32 | 0.0 | 1.0 | 0.00 | 0.00 | 0.00 | 67 | 1010.3 |
| 20260504030557 | 49 | 32 | 0.0 | 1.0 | 0.00 | 0.00 | 0.00 | 63 | 1010.3 |
| 20260504025557 | 49 | 29 | 0.0 | 1.0 | 0.00 | 0.00 | 0.00 | 62 | 1010.3 |
| 20260504025057 | 50 | 21 | 0.0 | 0.0 | 0.00 | 0.00 | 0.00 | 59 | 1010.4 |
| 20260504024557 | 50 | 21 | 0.0 | 0.0 | 0.00 | 0.00 | 0.00 | 56 | 1010.4 |
| 20260504024056 | 51 | 21 | 0.0 | 0.0 | 0.00 | 0.00 | 0.00 | 55 | 1010.4 |
| 20260504023556 | 52 | 21 | 0.0 | 1.0 | 0.00 | 0.00 | 0.00 | 55 | 1010.4 |
| 20260504022055 | 51 | 21 | 0.0 | 1.0 | 0.00 | 0.00 | 0.00 | 48 | 1010.4 |
| 20260504021055 | 51 | 23 | 0.0 | 0.0 | 0.00 | 0.00 | 0.00 | 49 | 1010.3 |
| 20260504020055 | 51 | 23 | 0.0 | 0.0 | 0.00 | 0.00 | 0.00 | 50 | 1010.3 |
| 20260504015555 | 51 | 23 | 0.0 | 0.0 | 0.00 | 0.00 | 0.00 | 50 | 1010.2 |
| 20260504015053 | 51 | 23 | 0.0 | 0.0 | 0.00 | 0.00 | 0.00 | 51 | 1010.2 |
| 20260504014553 | 52 | 23 | 0.0 | 0.0 | 0.00 | 0.00 | 0.00 | 50 | 1010.2 |
| 20260504014053 | 52 | 23 | 0.0 | 0.0 | 0.00 | 0.00 | 0.00 | 50 | 1010.2 |
| 20260504013553 | 52 | 23 | 0.0 | 0.0 | 0.00 | 0.00 | 0.00 | 50 | 1010.2 |
| 20260504012553 | 53 | 23 | 0.0 | 0.0 | 0.00 | 0.00 | 0.00 | 50 | 1010.1 |
| 20260504012054 | 53 | 23 | 0.0 | 0.0 | 0.00 | 0.00 | 0.00 | 49 | 1010.0 |
| 20260504011553 | 53 | 23 | 0.0 | 0.0 | 0.00 | 0.00 | 0.00 | 47 | 1010.0 |
| 20260504011054 | 54 | 23 | 0.0 | 0.0 | 0.00 | 0.00 | 0.00 | 45 | 1010.0 |
| 20260504010554 | 54 | 23 | 0.0 | 0.0 | 0.00 | 0.00 | 0.00 | 46 | 1009.8 |
| 20260504010051 | 54 | 23 | 0.0 | 0.0 | 0.00 | 0.00 | 0.00 | 45 | 1009.8 |
| 20260504005552 | 55 | 23 | 0.0 | 0.0 | 0.00 | 0.00 | 0.00 | 45 | 1009.7 |
| 20260504004553 | 55 | 23 | 0.0 | 0.0 | 0.00 | 0.00 | 0.00 | 42 | 1009.6 |
| 20260504004051 | 56 | 23 | 0.0 | 0.0 | 0.00 | 0.00 | 0.00 | 44 | 1009.6 |
| 20260504003552 | 56 | 23 | 0.0 | 0.0 | 0.00 | 0.00 | 0.00 | 40 | 1009.5 |
| 20260504003051 | 56 | 23 | 0.0 | 1.0 | 0.00 | 0.00 | 0.00 | 38 | 1009.4 |
| 20260504002551 | 56 | 23 | 0.0 | 1.0 | 0.00 | 0.00 | 0.00 | 38 | 1009.3 |
| 20260504002051 | 57 | 23 | 0.0 | 1.0 | 0.00 | 0.00 | 0.00 | 37 | 1009.2 |
| 20260504001551 | 57 | 23 | 0.0 | 1.0 | 0.00 | 0.00 | 0.00 | 37 | 1009.2 |
| 20260504000550 | 57 | 30 | 0.0 | 1.0 | 0.00 | 0.00 | 0.00 | 36 | 1009.0 |
| 20260503235049 | 58 | 19 | 0.0 | 2.0 | 0.00 | 0.00 | 0.00 | 35 | 1008.8 |
| 20260503234549 | 58 | 32 | 0.0 | 2.0 | 0.00 | 0.00 | 0.00 | 34 | 1008.8 |
| 20260503234049 | 58 | 4 | 0.0 | 2.0 | 0.00 | 0.00 | 0.00 | 34 | 1008.7 |
| 20260503233550 | 58 | 8 | 0.0 | 2.0 | 0.00 | 0.00 | 0.00 | 34 | 1008.6 |
| 20260503233048 | 59 | 4 | 0.0 | 3.0 | 0.00 | 0.00 | 0.00 | 32 | 1008.6 |
| 20260503231547 | 59 | 23 | 0.0 | 2.0 | 0.00 | 0.00 | 0.00 | 32 | 1008.5 |
| 20260503231048 | 59 | 10 | 0.0 | 2.0 | 0.00 | 0.00 | 0.00 | 31 | 1008.4 |
| 20260503230047 | 59 | 40 | 0.0 | 5.0 | 0.00 | 0.00 | 0.00 | 31 | 1008.2 |
| 20260503224547 | 59 | 20 | 0.0 | 3.0 | 0.00 | 0.00 | 0.00 | 31 | 1008.2 |